Location: Cubitt Town
(51.4833°N, 0.0000°E)
Time: 22:49:21
(UTC+00:00)

Cosmos 372 Rocket - Pass Details

Date: 15 May 2026
Orbit: 734 x 761 km, 74.1° (Epoch: 6 June)

Event Time Altitude Azimuth Distance (km) Brightness Sun altitude
Rises 21:54:51 0° 337° (NNW) 3,197 9.1 -14.6°
Reaches altitude 10° 21:57:18 10° 342° (NNW) 2,265 7.8 -14.8°
Maximum altitude 22:02:18 52° 59° (ENE) 922 4.4 -15.2°
Enters shadow 22:05:24 22° 127° (SE) 1,579 5.1 -15.4°
